Regional Weather Roundup
Issued by NWS

Home | Current Version | Previous Version | Text Only | Print | Product List | Glossary Off
Versions: 1 2 3 4 5 6 7 8 9 10 11 12 13 14 15 16 17 18 19 20 21 22 23 24 25 26 27 28 29 30 31 32 33 34 35 36 37 38 39 40 41 42 43 44 45 46 47 48 49 50

017
ASUS45 KSLC 281410
RWRUT

UTAH REGIONAL WEATHER ROUNDUP
NATIONAL WEATHER SERVICE SALT LAKE CITY UT
800 AM MDT TUE MAR 28 2017

UTZ001>011-023>025-281500-

NORTHERN UTAH

CITY           SKY/WX    TMP DP  RH WIND       PRES   REMARKS
BRIGHAM CITY     N/A     40  29  65 N17G23    30.12R WCI  31
DUGWAY         MOCLDY    35  29  78 N9        30.13  WCI  28
HILL AFB       CLOUDY    38  30  74 N12       30.10R WCI  30
LOGAN          CLOUDY    40  32  73 N15       30.13R WCI  32
OGDEN          CLOUDY    38  31  76 NW14      30.10R WCI  30
SALT LAKE CITY MOCLDY    39  32  76 NW14      30.11R WCI  31
TOOELE VALLEY  CLOUDY    39  32  75 W9        30.14R WCI  33
WENDOVER       CLEAR     39  22  50 NW13G26   30.17R WCI  31
HEBER CITY     CLOUDY    37  27  65 N6        30.05R WCI  33
WEST JORDAN    CLOUDY    40  38  93 NW15G23   30.11R WCI  32

$$

UTZ011>015-024>027-281500-

CENTRAL/NORTHEAST UTAH

CITY           SKY/WX    TMP DP  RH WIND       PRES   REMARKS
PROVO AIRPORT  PTCLDY    37  30  75 N16       30.09R WCI  28
MOAB/CANYONLAN CLOUDY    43  42  97 N3        29.87R
DELTA          CLEAR     32  28  86 NE3       30.11R
PRICE          CLOUDY    39  29  67 NW16      29.93R WCI  30
RICHFIELD      CLOUDY    39  30  70 CALM      30.09R
ROOSEVELT      PTCLDY    39  37  93 CALM      29.95R
VERNAL         CLOUDY    40  37  89 CALM      29.93R

$$

UTZ013>016-019>022-027-281500-

SOUTHERN UTAH

CITY           SKY/WX    TMP DP  RH WIND       PRES   REMARKS
BRYCE CANYON   CLOUDY    27  22  81 NW20G30   29.98R WCI  13
CEDAR CITY     PTCLDY    32  27  81 N8        30.06R WCI  25
MILFORD        CLEAR     34  27  75 N9        30.10R WCI  27
ST GEORGE      MOSUNNY   48  27  44 S12       29.99R
HANKSVILLE     CLOUDY    45  32  61 CALM      29.92R
KANAB          CLEAR     43  25  49 NW13G24   29.99R
BLANDING       CLOUDY    39  38  97 CALM      29.94R

$$

REGIONAL REPORTS     COLORADO/ARIZONA

CITY           SKY/WX    TMP DP  RH WIND       PRES   REMARKS
CRAIG, CO      FLURRIES  34  31  88 SW8       29.91R WCI  27
GRAND JUNCTION CLOUDY    43  43 100 W3        29.88R
RIFLE, CO      CLOUDY    42  39  89 W6        29.88R
MONTROSE, CO   CLOUDY    39  38  96 CALM      29.90R
CORTEZ, CO     CLOUDY    38  38 100 CALM      29.85R
COLORADO CITY    N/A     41  28  60 NW13G18   30.00R
PAGE, AZ       CLOUDY    49  29  46 NW8       29.88R
GRAND CANYON   CLEAR     34  28  79 N5        29.93R WCI  30
KINGMAN, AZ    CLEAR     45  17  32 N10       29.98R
FLAGSTAFF, AZ  MOCLDY    29  27  92 CALM      29.89R

$$

REGIONAL REPORTS    NEVADA/IDAHO/WYOMING

CITY           SKY/WX    TMP DP  RH WIND       PRES   REMARKS
LAS VEGAS, NV  CLEAR     56  20  24 NW18G28   30.02S
ELY, NY        CLEAR     26  21  81 NW9       30.17R WCI  17
ELKO, NV       CLEAR     27  23  85 CALM      30.24R
POCATELLO, ID  PTCLDY    34  31  88 SW14      30.21R WCI  25
BURLEY, ID     CLOUDY    35  27  72 W17       30.21R WCI  25
FORT BRIDGER,  CLOUDY    33  33 100 W12       30.08R WCI  24
EVANSTON, WY   CLOUDY    31  27  85 N15       30.06R WCI  20
ROCK SPRINGS,  SNOW      33  31  92 NW12      29.99R VSB 1/4 WCI  24
KEMMERER, WY     N/A     28  27  93 NW3       30.04R

$$




USA.gov is the U.S. government's official web portal to all federal, state and local government web resources and services.